border="1" width="100%"> Sonnenaufgang gestern05:43    25. Juli 2016 Sonnenuntergang gestern20:58 25.07.2016 Sonnenaufgang05:44 Sonnenzenit13:21 Sonnenuntergang20:56 Sonnenaufgang morgen05:45    27. Juli 2016 Sonnenuntergang morgen20:55    27. Juli 2016 Tageslnge15:12 Bewlkungsgraddunkel Sonnenhchststand61,522 Sichtweite4-8 km Elevation25,774 Azimuth-90,712 Tagessonnenstunden2:15 Stunden Wochensonnenstunden6:12 Stunden Monatssonnenstunden189:30 Stunden Jahressonnenstunden945:22 Stunden Die dargestellten Werte reprsentieren die Daten des aktuellen Tages! Der Luftdruck ist auf Meereshhe bezogen! Die Mond-/Sonnen-Daten beziehen sich auf die Standortkoordinaten von 47 45' 25" Nord  -  11 22' 5" Ost Zeit --> Mittel Europische Sommer Zeit Die Wettervorhersage wurde berechnet - ohne Gewähr!

Jahres-Eistage (Tmax < 0C) 4 Vorjahres-Eistage (Tmax < 0C) 2
Jahres-Frosttage (Tmin <= 0C) 51 Vorjahres-Frosttage (Tmin <= 0C) 117
Kalte Tage des Jahres (Tmax < 10C) 68 Kalte Tage des Vorjahres (Tmax < 10C) 95
Jahres-Sommertage (Tmax >= 25C) 33 Vorjahres-Sommertage (Tmax >= 25C) 75
Heie Tage des Jahres (Tmax >= 30C) 8 Heie Tage Vorjahr (Tmax >= 30C) 42

Die Jahresanzahlen gelten immer fr den Zeitraum 01.01. bis 31.12. des laufenden Jahres.
Sie sind also nur bedingt vergleichbar, knnen aber einen Anhalt geben ob das Jahr khler oder wrmer als das vorherige wird.

Monats-Eistage (Tmax < 0C) 0 Monats-Eistage Vorjahr (Tmax < 0C) 0
Monats-Frosttage (Tmin <= 0C) 0 Monats-Frosttage Vorjahr(Tmin <= 0C) 0
Kalte Tage des Monats(Tmax < 10C) 0 Kalte Tage des Monats Vorjahr (Tmax < 10C) 0
Monats-Sommertage (Tmax >= 25C) 18 Monats-Sommertage Vorjahr (Tmax >= 25C) 23
Heie Tage des Monats (Tmax >= 30C) 4 Heie Tage des Monats Vorjahr (Tmax >= 30C) 17

Mit diesen Zahlen kann man sehr gut den jeweiligen aktuellen Monat und den des Vorjahrs vergleichen.

Durchschnitts-Temperatur des aktuellen Monats 19,24 C
Standardabweichung des Monats +0,84
Normaltemperatur Jahr 9,1 C
Durchschnitts-Temperatur des aktuellen Jahres 9,68 C

          Aussen-      Aussen                                                                          Wind         Sonnen        Sonnen
Zeit     tempera.      Feuchte     Luftdruck      Taupunkt     Windchill     Regen        Wind       richtung     Elevation      azimuth
----------------------------------------------------------------------------------------------------------------------------------------
00:01     18,6 C         88 %     1015,8 hPa     16,6 C       18,6 C      0,0 mm     0,0 km/h            N     -20,481    -159,849 
01:00     17,6 C         89 %     1015,4 hPa     15,8 C       17,6 C      0,0 mm     0,0 km/h            N     -22,684    -174,624 
02:00     17,4 C         92 %     1015,8 hPa     16,1 C       17,4 C      0,0 mm     0,0 km/h            N     -22,292     170,066 
03:00     17,1 C         92 %     1015,6 hPa     15,8 C       17,1 C      0,0 mm     0,0 km/h            N     -19,293     155,271 
04:00     17,4 C         93 %     1015,3 hPa     16,3 C       17,4 C      0,0 mm     0,0 km/h            N     -14,017     141,562 
05:00     17,4 C         93 %     1015,1 hPa     16,3 C       17,4 C      0,0 mm     0,0 km/h            N      -6,937     129,096 
06:00     17,4 C         93 %     1015,1 hPa     16,3 C       17,4 C      0,0 mm     0,0 km/h            N       1,468     117,692 
07:00     17,4 C         93 %     1015,3 hPa     16,3 C       17,4 C      0,0 mm     0,0 km/h            N      10,778     106,964 
08:00     18,2 C         93 %     1015,9 hPa     17,0 C       18,2 C      0,0 mm     0,0 km/h            N      20,632      96,399 
09:00     20,2 C         89 %     1015,8 hPa     18,3 C       20,2 C      0,0 mm     0,0 km/h            N      30,693      85,332 
10:00     23,2 C         67 %     1015,4 hPa     16,7 C       23,2 C      0,0 mm     0,0 km/h            N      40,574      72,819 
11:00     24,7 C         64 %     1015,1 hPa     17,4 C       24,7 C      0,0 mm     0,0 km/h            N      49,711      57,407 
12:00     25,3 C         62 %     1015,0 hPa     17,5 C       25,3 C      0,0 mm     0,0 km/h            N      57,125      37,017 
13:00     24,7 C         64 %     1015,0 hPa     17,4 C       24,7 C      0,0 mm     0,0 km/h            N      61,206      10,345 
14:00     25,3 C         55 %     1014,5 hPa     15,6 C       25,3 C      0,0 mm     0,0 km/h            N      60,435     -18,889 
15:00     25,3 C         56 %     1014,0 hPa     15,9 C       25,3 C      0,0 mm     0,0 km/h            N      55,146     -43,738 
16:00     22,6 C         60 %     1014,6 hPa     14,4 C       22,6 C      0,0 mm     0,0 km/h            N      47,065     -62,387 
17:00     21,3 C         68 %     1015,3 hPa     15,1 C       21,3 C      0,0 mm     0,0 km/h            N      37,618     -76,726 
18:00     18,4 C         86 %     1015,4 hPa     16,0 C       18,4 C      0,0 mm     0,0 km/h            N      27,623     -88,672 
----------------------------------------------------------------------------------------------------------------------------------------
Durch.    20,7 C         78 %     1015,2 hPa     16,4 C       20,7 C      0,0 mm     0,0 km/h

Min.      17,1 C         53 %     1014,0 hPa     13,7 C       17,1 C      0,0 mm     0,0 km/h
Zeit      02:59         14:09       14:46         17:21          02:59       00:01        00:01

Max.      27,4 C         93 %     1016,0 hPa     19,2 C       27,4 C      0,3 mm     0,0 km/h
Zeit      14:20         03:08       08:16         09:13          14:20       17:53        00:01



Grafische Darstellung (Zum Vergrößern einfach Doppelklick auf die Grafik):

Erzeugt mit 2.98.1 von Werner Krenn


Tabellarische 24-Stundenübersicht: Aktuell


Mondphase:

Letztes Update:
06.02.2015
© by B2-Design

1999-2015 Werner Krenn / Mischa Thurnherr - Wetterstation Bedien- und Auswertesoftware - V2.98.1